KA5FVT Weather Reports


Display with metric or nautical units.
time (UTC)temp
F
wind
direction
speed
MPH
gust
MPH
rain 1hr
in
rain 24hr
in
rain mn
in
humidity
%
barometer
mb
20260504195926 82 5 0.0 1.0 0.00 0.00 0.00 56 1012.4
20260504195426 81 5 1.0 2.0 0.00 0.00 0.00 54 1012.7
20260504194926 81 5 1.0 2.0 0.00 0.00 0.00 56 1012.6
20260504194427 82 195 0.0 2.0 0.00 0.00 0.00 56 1012.8
20260504193926 82 269 1.0 2.0 0.00 0.00 0.00 55 1012.7
20260504193426 82 269 0.0 3.0 0.00 0.00 0.00 56 1012.8
20260504192926 81 166 1.0 2.0 0.00 0.00 0.00 56 1012.8
20260504192426 81 149 0.0 2.0 0.00 0.00 0.00 54 1013.0
20260504191927 82 94 1.0 2.0 0.00 0.00 0.00 55 1013.1
20260504191427 82 173 2.0 2.0 0.00 0.00 0.00 54 1013.1
20260504190926 82 173 1.0 2.0 0.00 0.00 0.00 54 1013.1
20260504190426 82 171 1.0 2.0 0.00 0.00 0.00 54 1013.2
20260504185929 82 224 1.0 2.0 0.00 0.00 0.00 56 1013.3
20260504185429 82 224 0.0 2.0 0.00 0.00 0.00 55 1013.5
20260504184927 82 227 0.0 2.0 0.00 0.00 0.00 55 1013.5
20260504184429 82 242 1.0 2.0 0.00 0.00 0.00 55 1013.4
20260504183926 82 242 2.0 3.0 0.00 0.00 0.00 54 1013.5
20260504183426 82 200 2.0 2.0 0.00 0.00 0.00 53 1013.5
20260504182927 82 195 1.0 2.0 0.00 0.00 0.00 54 1013.3
20260504182430 81 238 1.0 2.0 0.00 0.00 0.00 55 1013.3
20260504181926 81 235 1.0 2.0 0.00 0.00 0.00 54 1013.4
20260504181426 82 160 1.0 2.0 0.00 0.00 0.00 52 1013.5
20260504180926 82 140 0.0 4.0 0.00 0.00 0.00 52 1013.7
20260504180426 82 209 2.0 2.0 0.00 0.00 0.00 54 1013.9
20260504175926 81 167 1.0 4.0 0.00 0.00 0.00 54 1013.9
20260504175426 81 286 1.0 2.0 0.00 0.00 0.00 55 1014.1
20260504174926 81 142 0.0 2.0 0.00 0.00 0.00 53 1013.9
20260504174426 81 142 0.0 2.0 0.00 0.00 0.00 56 1014.0
20260504173927 81 142 1.0 2.0 0.00 0.00 0.00 57 1014.2
20260504173428 81 143 1.0 2.0 0.00 0.00 0.00 56 1014.2
20260504172927 80 182 1.0 2.0 0.00 0.00 0.00 57 1014.1
20260504172430 80 184 1.0 2.0 0.00 0.00 0.00 55 1014.2
20260504171927 80 177 1.0 2.0 0.00 0.00 0.00 56 1014.4
20260504171430 80 177 1.0 2.0 0.00 0.00 0.00 56 1014.5
20260504170926 80 240 0.0 2.0 0.00 0.00 0.00 56 1014.5
20260504170426 80 213 1.0 2.0 0.00 0.00 0.00 58 1014.5
20260504160426 76 175 2.0 2.0 0.00 0.00 0.00 62 1015.4
20260504150926 73 130 1.0 2.0 0.00 0.00 0.00 66 1015.5
20260504150426 73 163 0.0 2.0 0.00 0.00 0.00 66 1015.5
20260504140927 69 195 0.0 1.0 0.00 0.00 0.00 68 1015.4
20260504140426 69 196 0.0 2.0 0.00 0.00 0.00 69 1015.3
20260504130426 62 200 0.0 0.0 0.00 0.00 0.00 82 1015.5
20260504110426 60 163 0.0 0.0 0.00 0.00 0.00 80 1015.1
20260504100429 61 163 0.0 0.0 0.00 0.00 0.00 77 1015.4
20260504081926 63 163 0.0 0.0 0.00 0.00 0.00 75 1016.0
20260504081429 63 163 0.0 0.0 0.00 0.00 0.00 75 1016.0
20260504080926 63 163 0.0 0.0 0.00 0.00 0.00 74 1016.1
20260504080426 63 163 0.0 0.0 0.00 0.00 0.00 74 1016.1
20260504050427 66 163 0.0 0.0 0.00 0.00 0.00 64 1017.9
20260504045926 66 163 0.0 0.0 0.00 0.00 0.00 64 1017.9
20260504045429 67 163 0.0 0.0 0.00 0.00 0.00 63 1017.9
20260504044926 67 163 0.0 0.0 0.00 0.00 0.00 63 1018.0
20260504044426 67 163 0.0 0.0 0.00 0.00 0.00 62 1018.0
20260504043926 67 163 0.0 0.0 0.00 0.00 0.00 62 1018.0
20260504043426 67 163 0.0 0.0 0.00 0.00 0.00 61 1018.0
20260504042930 67 163 0.0 1.0 0.00 0.00 0.00 61 1018.1
20260504042429 67 163 0.0 0.0 0.00 0.00 0.00 61 1018.0
20260504041926 68 163 0.0 0.0 0.00 0.00 0.00 61 1018.1
20260504041426 68 163 0.0 0.0 0.00 0.00 0.00 61 1018.2
20260504040926 68 163 0.0 0.0 0.00 0.00 0.00 60 1018.2
20260504040426 68 163 0.0 0.0 0.00 0.00 0.00 59 1018.1
20260504035927 68 163 0.0 0.0 0.00 0.00 0.00 59 1018.2
20260504035427 68 163 0.0 0.0 0.00 0.00 0.00 59 1018.0
20260504034926 68 163 0.0 0.0 0.00 0.00 0.00 58 1018.0
20260504034426 69 163 0.0 0.0 0.00 0.00 0.00 58 1018.2
20260504033926 69 163 0.0 0.0 0.00 0.00 0.00 58 1018.2
20260504033429 69 163 0.0 0.0 0.00 0.00 0.00 57 1018.2
20260504032929 69 163 0.0 0.0 0.00 0.00 0.00 57 1018.2
20260504032426 69 163 0.0 0.0 0.00 0.00 0.00 55 1018.3
20260504031927 69 163 0.0 0.0 0.00 0.00 0.00 55 1017.9
20260504031429 70 163 0.0 0.0 0.00 0.00 0.00 55 1017.8
20260504030926 70 163 0.0 0.0 0.00 0.00 0.00 55 1017.8
20260504030426 70 163 0.0 0.0 0.00 0.00 0.00 54 1017.9
20260504025926 70 163 0.0 0.0 0.00 0.00 0.00 54 1017.9
20260504025426 70 163 0.0 0.0 0.00 0.00 0.00 53 1017.9
20260504024926 71 163 0.0 1.0 0.00 0.00 0.00 53 1017.8
20260504024427 71 163 0.0 1.0 0.00 0.00 0.00 52 1017.9
20260504023926 71 163 1.0 2.0 0.00 0.00 0.00 51 1017.8
20260504023426 71 163 1.0 2.0 0.00 0.00 0.00 52 1017.8
20260504022926 71 163 1.0 1.0 0.00 0.00 0.00 51 1017.9
20260504022426 71 163 0.0 2.0 0.00 0.00 0.00 51 1017.8
20260504021926 72 163 0.0 1.0 0.00 0.00 0.00 51 1017.8
20260504021426 72 163 0.0 2.0 0.00 0.00 0.00 50 1017.6
20260504020930 72 163 1.0 2.0 0.00 0.00 0.00 49 1017.5
20260504020426 72 163 1.0 1.0 0.00 0.00 0.00 50 1017.5
20260504015929 72 163 0.0 1.0 0.00 0.00 0.00 49 1017.5
20260504015426 72 163 1.0 1.0 0.00 0.00 0.00 49 1017.5
20260504014926 73 163 0.0 1.0 0.00 0.00 0.00 49 1017.5
20260504014429 73 163 0.0 2.0 0.00 0.00 0.00 48 1017.5
20260504013929 73 163 1.0 1.0 0.00 0.00 0.00 48 1017.4
20260504013427 73 163 0.0 1.0 0.00 0.00 0.00 49 1017.4
20260504012929 73 163 1.0 1.0 0.00 0.00 0.00 47 1017.3
20260504012426 73 163 0.0 0.0 0.00 0.00 0.00 47 1017.1
20260504011926 74 163 0.0 0.0 0.00 0.00 0.00 47 1017.0
20260504011426 74 163 0.0 0.0 0.00 0.00 0.00 47 1017.1
20260504010927 74 163 0.0 0.0 0.00 0.00 0.00 47 1017.2
20260504010426 74 163 0.0 1.0 0.00 0.00 0.00 46 1017.2
20260504005926 75 163 0.0 0.0 0.00 0.00 0.00 46 1017.1
20260504005426 75 163 0.0 1.0 0.00 0.00 0.00 45 1017.1
20260504004929 75 163 0.0 1.0 0.00 0.00 0.00 45 1017.2
20260504004426 76 163 1.0 2.0 0.00 0.00 0.00 44 1017.2
20260504003926 76 164 0.0 2.0 0.00 0.00 0.00 43 1017.2
20260504003426 76 164 1.0 1.0 0.00 0.00 0.00 42 1017.2
20260504002927 77 164 0.0 1.0 0.00 0.00 0.00 41 1017.1
20260504002426 77 163 0.0 2.0 0.00 0.00 0.00 39 1017.2
20260504001926 77 163 0.0 2.0 0.00 0.00 0.00 38 1017.1
20260504001426 78 163 0.0 1.0 0.00 0.00 0.00 37 1017.2
20260504000926 78 163 0.0 1.0 0.00 0.00 0.00 37 1017.1
20260504000431 79 163 0.0 1.0 0.00 0.00 0.00 37 1017.2
20260503235926 79 163 0.0 1.0 0.00 0.00 0.00 37 1017.2
20260503235427 79 163 1.0 1.0 0.00 0.00 0.00 37 1017.3
20260503234926 80 163 0.0 1.0 0.00 0.00 0.00 37 1017.2
20260503234426 80 163 0.0 1.0 0.00 0.00 0.00 37 1017.2
20260503233926 80 164 0.0 2.0 0.00 0.00 0.00 35 1017.2
20260503233426 81 164 1.0 1.0 0.00 0.00 0.00 36 1017.3
20260503232929 81 164 1.0 1.0 0.00 0.00 0.00 35 1017.2
20260503232426 82 163 1.0 1.0 0.00 0.00 0.00 35 1017.3
20260503231927 82 164 0.0 1.0 0.00 0.00 0.00 36 1017.3
20260503231426 82 163 0.0 2.0 0.00 0.00 0.00 35 1017.2
20260503230926 82 164 0.0 1.0 0.00 0.00 0.00 37 1017.3
20260503230426 81 163 0.0 2.0 0.00 0.00 0.00 36 1017.3
20260503225926 81 162 1.0 1.0 0.00 0.00 0.00 37 1017.3
20260503225429 81 162 2.0 2.0 0.00 0.00 0.00 35 1017.4
20260503224926 81 162 0.0 2.0 0.00 0.00 0.00 35 1017.5
20260503224430 81 162 2.0 2.0 0.00 0.00 0.00 35 1017.5
20260503223926 81 162 1.0 2.0 0.00 0.00 0.00 38 1017.5
20260503223426 81 162 0.0 2.0 0.00 0.00 0.00 35 1017.7
20260503222926 81 162 2.0 2.0 0.00 0.00 0.00 36 1017.7
20260503222429 81 292 0.0 2.0 0.00 0.00 0.00 34 1017.9
20260503221926 81 292 0.0 2.0 0.00 0.00 0.00 34 1018.1
20260503221427 81 293 0.0 2.0 0.00 0.00 0.00 35 1018.1
20260503220927 81 293 1.0 1.0 0.00 0.00 0.00 36 1018.0
20260503220426 81 293 1.0 2.0 0.00 0.00 0.00 36 1017.8
20260503215926 80 311 1.0 1.0 0.00 0.00 0.00 37 1017.8
20260503215426 80 311 0.0 2.0 0.00 0.00 0.00 34 1017.8
20260503214926 80 311 2.0 2.0 0.00 0.00 0.00 36 1017.8
20260503214426 80 329 1.0 2.0 0.00 0.00 0.00 36 1018.0
20260503213926 80 329 1.0 1.0 0.00 0.00 0.00 35 1018.1
20260503213427 80 309 0.0 1.0 0.00 0.00 0.00 33 1018.3
20260503212926 80 309 0.0 2.0 0.00 0.00 0.00 35 1018.4
20260503212430 80 309 0.0 2.0 0.00 0.00 0.00 37 1018.5
20260503211927 80 309 0.0 3.0 0.00 0.00 0.00 37 1018.5
20260503211427 80 177 1.0 2.0 0.00 0.00 0.00 35 1018.5
20260503210926 80 9 0.0 2.0 0.00 0.00 0.00 35 1018.5
20260503210429 80 267 2.0 4.0 0.00 0.00 0.00 35 1018.6
20260503205927 81 279 3.0 4.0 0.00 0.00 0.00 33 1018.8
20260503205426 81 209 1.0 2.0 0.00 0.00 0.00 34 1018.9
20260503204926 81 209 0.0 2.0 0.00 0.00 0.00 33 1019.0
20260503204429 81 209 0.0 2.0 0.00 0.00 0.00 37 1019.1
20260503203926 81 210 0.0 3.0 0.00 0.00 0.00 35 1019.2
20260503203426 81 200 1.0 2.0 0.00 0.00 0.00 35 1019.3
20260503202926 82 200 0.0 2.0 0.00 0.00 0.00 34 1019.4
20260503202427 82 200 1.0 2.0 0.00 0.00 0.00 32 1019.6
20260503201926 83 217 1.0 2.0 0.00 0.00 0.00 33 1019.5
20260503201426 83 267 0.0 1.0 0.00 0.00 0.00 34 1019.5
20260503200930 83 267 0.0 1.0 0.00 0.00 0.00 33 1019.6
20260503200426 84 267 1.0 2.0 0.00 0.00 0.00 33 1019.8